Weather History for Le Puy, France

Change the Weather History Date:

Monday, January 21, 2013

  Actual Average Record
Temperature  
Mean Temperature 28 °F -  
Max Temperature 38 °F - - ()
Min Temperature 19 °F - - ()
Degree Days  
Heating Degree Days 36    
Moisture  
Dew Point 24 °F    
Average Humidity 78    
Maximum Humidity 93    
Minimum Humidity 58    
Precipitation  
Precipitation 0.01 in - - ()
Sea Level Pressure  
Sea Level Pressure 29.45 in    
Wind  
Wind Speed 4 mph ()    
Max Wind Speed 15 mph    
Max Gust Speed 26 mph    
Visibility 6.4 miles    
Events Rain , Snow    
T = Trace of Precipitation, MM = Missing Value Source: Averaged Metar Reports

Daily Weather History Graph

Daily Weather History Graph

Search for Another Location

Airport:

Trip Planner

Search our weather history database for the weather conditions in past years. The results will help you decide how hot, cold, wet, or windy it might be!

Date:

Astronomy

Jan. 21, 2013 Rise Set
Actual Time 8:15 AM CET 5:37 PM CET
Civil Twilight 7:43 AM CET 6:09 PM CET
Nautical Twilight 7:07 AM CET 6:45 PM CET
Astronomical Twilight 6:32 AM CET 7:20 PM CET
Moon 1:06 PM CET (1/21) 3:29 AM CET (1/21)
Length of Visible Light 10h 26m
Length of Day
9h 21m
Waxing Gibbous, 73% of the Moon is Illuminated
Jan 21
Waxing Gibbous
Jan 27
Full
Feb 3
Last Quarter
Feb 10
New
Feb 17
First Quarter

Hourly Weather History & Observations

Time (CET) Temp. Windchill Dew Point Humidity Pressure Visibility Wind Dir Wind Speed Gust Speed Precip Events Conditions
12:00 AM 24.8 °F - 19.4 °F 80% 29.42 in 6.2 mi Calm Calm - N/A   Scattered Clouds
12:30 AM 21.2 °F - 17.6 °F 86% 29.42 in 6.2 mi SSW 2.3 mph - N/A   Partly Cloudy
1:00 AM 21 °F - 17 °F 76%  in 12 mi SW 3.5 mph - -   Clear
1:00 AM 21.2 °F 16.4 °F 17.6 °F 86% 29.42 in 6.2 mi SW 3.5 mph - N/A   Unknown
1:30 AM 23.0 °F 17.0 °F 17.6 °F 80% 29.42 in 6.2 mi WSW 4.6 mph - N/A   Unknown
2:00 AM 21.2 °F - 17.6 °F 86% 29.42 in 6.2 mi Variable 2.3 mph - N/A   Unknown
2:30 AM 21.2 °F - 17.6 °F 86% 29.42 in 6.2 mi Variable 1.2 mph - N/A   Unknown
3:00 AM 19.4 °F - 15.8 °F 86% 29.42 in 6.2 mi Variable 1.2 mph - N/A   Unknown
3:30 AM 19.4 °F - 15.8 °F 86% 29.42 in 6.2 mi Calm Calm - N/A   Unknown
4:00 AM 21.2 °F - 17.6 °F 86% 29.39 in 6.2 mi Calm Calm - N/A   Partly Cloudy
4:30 AM 21.2 °F - 19.4 °F 93% 29.39 in 5.6 mi Variable 1.2 mph - N/A Snow Light Snow
5:00 AM 23.0 °F - 19.4 °F 86% 29.39 in 6.2 mi Calm Calm - N/A   Mostly Cloudy
5:30 AM 23.0 °F - 19.4 °F 86% 29.39 in 6.2 mi Calm Calm - N/A   Scattered Clouds
6:00 AM 23.0 °F - 19.4 °F 86% 29.39 in 6.2 mi Variable 1.2 mph - N/A   Partly Cloudy
6:30 AM 23.0 °F - 21.2 °F 93% 29.39 in 6.2 mi North 2.3 mph - N/A   Mostly Cloudy
7:00 AM 24 °F - 20 °F 81%  in 9 mi Calm Calm - -   Clear
7:00 AM 23.0 °F - 21.2 °F 93% 29.39 in 6.2 mi Calm Calm - N/A   Mostly Cloudy
7:30 AM 23.0 °F - 19.4 °F 86% 29.39 in 6.2 mi Calm Calm - N/A   Partly Cloudy
8:00 AM 23.0 °F - 19.4 °F 86% 29.39 in 6.2 mi Variable 2.3 mph - N/A   Scattered Clouds
8:30 AM 23.0 °F - 21.2 °F 93% 29.39 in 6.2 mi Variable 2.3 mph - N/A   Unknown
9:00 AM 33.8 °F 24.8 °F 30.2 °F 87% 29.39 in 6.2 mi West 12.7 mph 26.5 mph N/A   Unknown
9:30 AM 35.6 °F 27.5 °F 28.4 °F 75% 29.42 in 6.2 mi WSW 11.5 mph - N/A   Unknown
10:00 AM 37.4 °F 29.8 °F 28.4 °F 70% 29.42 in 6.2 mi WSW 11.5 mph - N/A   Scattered Clouds
10:30 AM 35.6 °F 27.5 °F 28.4 °F 75% 29.42 in 6.2 mi WSW 11.5 mph - N/A   Scattered Clouds
11:00 AM 39.2 °F 33.0 °F 28.4 °F 65% 29.44 in 6.2 mi West 9.2 mph - N/A   Partly Cloudy
11:30 AM 37.4 °F 28.9 °F 28.4 °F 70% 29.44 in 6.2 mi West 13.8 mph - N/A   Unknown
12:00 PM 37.4 °F 29.8 °F 28.4 °F 70% 29.44 in 6.2 mi WSW 11.5 mph - N/A Rain , Snow Light Snow
12:30 PM 37.4 °F 28.9 °F 28.4 °F 70% 29.44 in 6.2 mi West 13.8 mph - N/A   Mostly Cloudy
1:00 PM 38 °F - 28 °F 58%  in 12 mi West 8.1 mph - -   Clear
1:30 PM 37.4 °F 31.4 °F 30.2 °F 75% 29.44 in 6.2 mi WSW 8.1 mph - N/A   Scattered Clouds
2:00 PM 37.4 °F 32.8 °F 28.4 °F 70% 29.44 in 6.2 mi WSW 5.8 mph - N/A   Mostly Cloudy
2:30 PM 37.4 °F 32.1 °F 28.4 °F 70% 29.44 in 6.2 mi West 6.9 mph - N/A   Mostly Cloudy
3:00 PM 37.4 °F 31.4 °F 28.4 °F 70% 29.44 in 6.2 mi WSW 8.1 mph - N/A   Mostly Cloudy
3:30 PM 37.4 °F 30.3 °F 26.6 °F 65% 29.47 in 6.2 mi West 10.4 mph - N/A   Scattered Clouds
4:00 PM 33.8 °F 26.4 °F 28.4 °F 81% 29.47 in 1.4 mi West 9.2 mph - N/A Snow Snow
4:30 PM 33.8 °F 28.6 °F 30.2 °F 87% 29.47 in 6.2 mi West 5.8 mph - N/A   Partly Cloudy
5:00 PM 33.8 °F 27.7 °F 28.4 °F 81% 29.50 in 6.2 mi West 6.9 mph - N/A   Partly Cloudy
5:30 PM 33.8 °F - 28.4 °F 81% 29.50 in 6.2 mi Variable 2.3 mph - N/A Snow Light Snow
6:00 PM 33.8 °F 27.0 °F 26.6 °F 75% 29.50 in 6.2 mi West 8.1 mph - N/A   Mostly Cloudy
6:30 PM 33.8 °F 28.6 °F 28.4 °F 81% 29.50 in 3.7 mi WSW 5.8 mph - N/A Snow Light Snow
7:00 PM 33 °F - 26 °F 68%  in 12 mi WSW 8.1 mph - - Snow Light Snow
7:30 PM 33.8 °F 30.8 °F 26.6 °F 75% 29.53 in 6.2 mi West 3.5 mph - N/A   Mostly Cloudy
8:00 PM 33.8 °F 25.8 °F 26.6 °F 75% 29.53 in 6.2 mi West 10.4 mph 23.0 mph N/A Snow Light Snow
8:30 PM 33.8 °F 25.3 °F 26.6 °F 75% 29.56 in 6.2 mi West 11.5 mph - N/A   Mostly Cloudy
9:00 PM 33.8 °F 24.8 °F 24.8 °F 70% 29.53 in 6.2 mi West 12.7 mph 24.2 mph N/A   Mostly Cloudy
9:30 PM 33.8 °F 24.3 °F 24.8 °F 70% 29.56 in 6.2 mi West 13.8 mph - N/A   Overcast
10:00 PM 33.8 °F 25.3 °F 24.8 °F 70% 29.56 in 6.2 mi WNW 11.5 mph - N/A   Overcast
10:30 PM 32.0 °F 21.6 °F 24.8 °F 75% 29.56 in 6.2 mi West 15.0 mph - N/A   Mostly Cloudy
11:00 PM 32.0 °F 22.1 °F 24.8 °F 75% 29.59 in 6.2 mi West 13.8 mph - N/A   Mostly Cloudy
11:30 PM 32.0 °F 22.1 °F 24.8 °F 75% 29.59 in 6.2 mi West 13.8 mph - N/A   Overcast